This demonstration page uses our WeatherBlox Daily Observations layout. Learn more.

Left ArrowRight Arrow

47.50024, -111.30081

Hourly Observations for April 1, 2019

Temp ( °F °C ) Dew Point ( °F °C ) Humidity (%) Winds ( mph kmh ) Pressure ( in mb ) Visibility ( mi km ) Precip ( " mm )
12:53 am 00:53 Partly Cloudy 33 0.6 31 -0.6 92 92 Calm 30.16 1021 10 16 0.00 0.00
1:53 am 01:53 Partly Cloudy 31 -0.6 31 -0.6 100 100 W 6 9 30.16 1021 10 16 0.00 0.00
2:53 am 02:53 Mostly Clear 27 -2.8 27 -2.8 100 100 WSW 5 7 30.17 1022 10 16 0.00 0.00
3:53 am 03:53 Partly Cloudy 27 -2.8 27 -2.8 100 100 W 6 9 30.15 1021 10 16 0.00 0.00
4:53 am 04:53 Cloudy 31 -0.6 31 -0.6 100 100 Calm 30.15 1021 10 16 0.00 0.00
5:53 am 05:53 Cloudy 31 -0.6 31 -0.6 100 100 NNW 6 9 30.17 1022 10 16 0.00 0.00
6:53 am 06:53 Cloudy 31 -0.6 30 -1.1 96 96 NNW 5 7 30.17 1022 10 16 0.00 0.00
7:36 am 07:36 Cloudy 31 -0.6 30 -1.1 96 96 Calm 30.24 1024 9 14 0.00 0.03
7:53 am 07:53 Cloudy with Light Snow 31 -0.6 30 -1.1 96 96 W 3 6 30.20 1023 2 3 0.00 0.03
8:02 am 08:02 Cloudy with Light Snow 31 -0.6 30 -1.1 96 96 W 6 9 30.24 1024 2 3 0.00 0.03
8:13 am 08:13 Cloudy with Light Snow 30 -1.1 30 -1.1 100 100 WNW 7 11 30.26 1025 2 3 0.00 0.03
8:41 am 08:41 Cloudy with Light Snow 31 -0.6 31 -0.6 100 100 W 7 11 30.25 1024 3 4 0.01 0.25
8:53 am 08:53 Cloudy with Light Snow 30 -1.1 30 -1.1 100 100 WNW 7 11 30.23 1024 3 4 0.01 0.25
9:06 am 09:06 Cloudy with Light Snow 30 -1.1 30 -1.1 100 100 W 7 11 30.26 1025 1 2 0.00 0.03
9:18 am 09:18 Cloudy with Light Snow 31 -0.6 31 -0.6 100 100 W 8 13 30.25 1024 2 2 0.01 0.25
9:26 am 09:26 Cloudy with Light Snow 31 -0.6 31 -0.6 100 100 WNW 8 13 30.26 1025 2 2 0.01 0.25
9:36 am 09:36 Cloudy with Light Snow 31 -0.6 31 -0.6 100 100 W 7 11 30.26 1025 3 4 0.01 0.25
9:53 am 09:53 Cloudy with Light Snow 31 -0.6 31 -0.6 100 100 W 7 11 30.24 1024 2 3 0.01 0.25
10:13 am 10:13 Cloudy with Light Snow 33 0.6 32 0 96 96 WSW 6 9 30.24 1024 3 5 0.00 0.03
10:29 am 10:29 Cloudy 32 0 32 0 100 100 W 8 13 30.25 1024 9 14 0.00 0.03
10:53 am 10:53 Cloudy with Light Snow 32 0 32 0 100 100 WSW 8 13 30.25 1024 2 3 0.00 0.03
10:56 am 10:56 Cloudy with Light Snow 32 0 32 0 100 100 WSW 8 13 30.26 1025 1 2 0.00 0.03
11:10 am 11:10 Cloudy with Light Snow 33 0.6 33 0.6 100 100 W 7 11 30.25 1024 2 3 0.00 0.03
11:14 am 11:14 Cloudy with Light Snow 33 0.6 33 0.6 100 100 W 7 11 30.25 1024 3 5 0.00 0.03
11:39 am 11:39 Cloudy with Light Snow 34 1.1 34 1.1 100 100 W 7 11 30.25 1024 3 4 0.00 0.03
11:48 am 11:48 Cloudy with Light Snow 36 2 36 2 100 100 WSW 7 11 30.23 1024 5 8 0.00 0.03
11:53 am 11:53 Cloudy 36 2.2 35 1.7 97 97 W 7 11 30.25 1024 7 11 0.00 0.03
12:53 pm 12:53 Cloudy 38 3.3 35 1.7 89 89 VRB 3 6 30.24 1024 10 16 0.00 0.00
12:56 pm 12:56 Cloudy 38 3.3 35 1.7 89 89 W 5 7 30.20 1023 10 16 0.00 0.00
1:07 pm 13:07 Cloudy 38 3.3 35 1.7 89 89 WSW 7 11 30.20 1023 10 16 0.00 0.00
1:33 pm 13:33 Cloudy 40 4.4 36 2.2 86 86 WSW 8 13 30.18 1022 10 16 0.00 0.00
1:53 pm 13:53 Cloudy 39 3.9 35 1.7 86 86 WSW 8 13 30.23 1024 10 16 0.00 0.00
2:00 pm 14:00 Cloudy 40 4.4 36 2.2 86 86 SW 7 11 30.18 1022 10 16 0.00 0.00
2:07 pm 14:07 Cloudy 40 4.4 36 2.2 86 86 SW 7 11 30.17 1022 10 16 0.00 0.00
2:16 pm 14:16 Cloudy 40 4.4 35 1.7 83 83 SW 8 13 30.17 1022 10 16 0.00 0.00
2:53 pm 14:53 Mostly Cloudy 38 3.3 35 1.7 89 89 SW 12 19 30.22 1023 10 16 0.00 0.00
3:45 pm 15:45 Cloudy 43 6.1 33 0.6 68 68 undefined N/A 30.12 1020 10 16 0.00 0.00
3:53 pm 15:53 Cloudy 43 6.1 34 1.1 71 71 SW 8 13 30.19 1023 10 16 0.00 0.00
4:53 pm 16:53 Cloudy 40 4.4 35 1.7 83 83 WSW 6 9 30.18 1022 10 16 0.05 1.27
5:53 pm 17:53 Cloudy 42 5.6 34 1.1 73 73 WNW 3 6 30.16 1022 10 16 0.00 0.00
6:53 pm 18:53 Partly Cloudy 42 5.6 33 0.6 71 71 WNW 6 9 30.16 1021 10 16 0.00 0.00
7:53 pm 19:53 Sunny 38 3.3 31 -0.6 76 76 NW 3 6 30.17 1022 10 16 0.00 0.00
8:53 pm 20:53 Mostly Clear 33 0.6 29 -1.7 85 85 WNW 6 9 30.19 1022 10 16 0.00 0.00
9:53 pm 21:53 Mostly Clear 28 -2.2 26 -3.3 92 92 WSW 7 11 30.21 1023 10 16 0.00 0.00
10:53 pm 22:53 Clear 30 -1.1 29 -1.7 96 96 W 9 15 30.19 1022 10 16 0.00 0.00
11:53 pm 23:53 Clear 29 -1.7 28 -2.2 96 96 SSW 7 11 30.18 1022 10 16 0.00 0.00

Powered by AerisWeather